Location: *
(51.2167°N, 10.0667°E)
Time: 16:45:37
(UTC+00:00)

SL-4 R/B - Pass Details

Date: 12 December 2019
Orbit: 428 x 667 km, 51.6° (Epoch: 21 January)

Event Time Altitude Azimuth Distance (km) Brightness Sun altitude
Rises 18:33:16 0° 283° (WNW) 2,583 6.6 -30.2°
Reaches altitude 10° 18:35:23 10° 281° (W) 1,737 5.4 -30.5°
Enters shadow 18:37:01 24° 277° (W) 1,112 4.2 -30.7°
